Location: Maccacari
(45.1333°N, 11.1333°E)
Time: 07:59:36
(UTC+00:00)

Transit 2A Rocket - Visible Passes

Search period start: 24 January 2021 00:00
Search period end: 03 February 2021 00:00
Orbit: 592 x 910 km, 66.7° (Epoch: 23 January)

Date Brightness Start Highest point End Pass type
(mag) Time Alt. Az. Time Alt. Az. Time Alt. Az.
25 Jan 7.1 18:57:14 10° NNW 18:57:43 12° NNW 18:57:43 12° NNW visible
26 Jan 6.5 18:15:01 10° N 18:16:31 16° N 18:16:31 16° N visible
27 Jan 6.4 17:33:02 10° N 17:35:23 14° NE 17:35:24 14° NE visible
27 Jan 6.9 19:14:18 10° NNW 19:15:20 17° NNW 19:15:20 17° NNW visible
28 Jan 5.8 18:31:49 10° NNW 18:34:17 29° N 18:34:17 29° N visible
29 Jan 5.5 17:49:28 10° NNW 17:53:16 27° NE 17:53:23 27° NE visible
29 Jan 7.0 19:31:52 10° NW 19:33:19 19° WNW 19:33:19 19° WNW visible
30 Jan 6.1 17:07:19 10° N 17:10:22 18° NE 17:12:37 13° ENE visible
30 Jan 5.1 18:49:03 10° NW 18:52:34 54° WNW 18:52:34 54° WNW visible
31 Jan 4.4 18:06:26 10° NNW 18:10:49 65° NE 18:12:02 43° ESE visible
31 Jan 7.5 19:50:36 10° WNW 19:52:00 13° W 19:52:00 13° W visible
01 Feb 5.0 17:24:00 10° NNW 17:28:06 37° NE 17:31:47 12° ESE visible
01 Feb 6.6 19:06:54 10° WNW 19:10:26 25° WSW 19:11:47 21° SW visible
02 Feb 5.5 18:23:52 10° NW 18:28:01 46° WSW 18:32:04 10° S visible
